CAPE
2255 2158 2066 2014 1894 1647 1673 1848 1701 1771 2297 1936 1984 2059 2346 2488 2555 2576 2628 2766 3033 2979 3477 3920 4063 3989 3390 3626 4043 3888 3832 3816 3544 3178 3438 3498 3335 3131 2860 2864 2852 2845
2305 2297 2473 2117 2297 2298 2143 1826 1898 1952 2410 2558 2167 2416 2757 2747 2648 2549 2714 2720 2899 2753 3414 3444 3786 3876 3628 3078 3697 3668 3968 3848 3635 3046 3332 3536 3467 3265 3006 3024 2732 2971
2233 2323 2308 2179 2057 2059 1558 1685 1945 2196 1983 2007 2046 2529 2474 2452 2352 2806 2850 2743 2502 2173 3121 3745 3703 3948 3530 3346 3747 3572 3393 4023 3557 3108 3555 3608 3466 3374 3162 2558 2496 2631
2364 2198 1910 1817 1845 2009 1944 2101 2281 2270 1988 2126 2137 1984 2058 1905 2316 2658 3021 3078 2857 2944 2918 3198 3272 2926 3146 3254 3774 3611 3560 4066 3361 3785 3600 3446 3412 3181 3097 3107 2854 2639
2202 2204 1996 1959 1987 2273 2292 2220 1954 2029 1993 1961 1966 2089 2493 2584 2707 2334 2651 2943 3242 2855 3206 3489 3664 3185 3586 3599 3887 3637 3480 3475 3572 4078 3772 3528 3570 3380 2985 2978 3003 2622
2256 2392 2417 2214 2396 2554 2283 2163 2170 1983 2139 1983 2270 2078 2160 2459 2344 2384 2502 2370 2074 2023 2324 2655 2875 2735 2772 3217 3732 3536 3285 3148 3158 3991 3686 3415 3000 2800 2742 2777 2932 2962
2065 2268 2122 2177 2244 2253 2212 2142 2161 2238 2045 2039 2297 2391 2316 2358 2513 2597 2806 2583 2010 2136 2210 2484 3242 2918 2979 3350 3796 3908 3850 3748 3572 3948 3906 3376 3296 3246 2925 2985 3146 3146
1706 1922 2102 2162 2075 2074 2220 2042 2159 2288 2328 2434 2420 2556 2629 2470 2570 2329 2630 2653 2385 2482 2672 2562 3177 3695 2995 3053 3387 3616 3549 3172 3446 3978 4120 3708 3715 3410 3314 3204 2974 3144
1738 1965 2062 2147 2007 1994 2026 1830 2088 2259 2341 2464 2226 2176 2647 2558 2558 2352 2593 2860 2718 2705 3167 2955 3339 3164 3130 3229 3364 3506 3484 3072 3030 3508 3871 3708 3179 3274 3126 3024 2977 3056
1993 2022 1872 1863 1736 1906 1967 1915 1844 2090 2432 2370 2198 2112 2254 2698 2516 2525 2852 3218 2914 3028 3209 3093 3140 3245 3095 3169 3473 3530 3459 3622 3522 3589 3651 3588 3418 3343 3192 3104 2894 2903
1959 2006 1920 1907 1770 1700 1802 1828 1852 1942 2232 2292 2177 2140 2104 2234 2746 2799 2985 3282 2682 2711 2941 3142 3148 3202 3319 3078 3161 3267 3505 3279 3277 3567 3651 3611 3491 3577 3535 3332 3332 3012
2103 2036 1974 1998 1925 1804 1786 1822 1831 1906 2033 2280 2213 2178 2240 2222 2440 2615 2512 2994 2938 2784 2886 3242 3292 3303 3324 3307 3073 3100 3299 3236 3172 3439 3340 3435 3542 3481 3571 3560 3412 3454
1980 1779 2112 2093 2121 2030 1941 1961 1922 1898 1922 2006 2130 2147 2231 2166 2164 2470 2650 2697 3057 3048 2873 3154 3385 3207 3420 3496 3226 3108 3135 3165 2930 3231 3296 3360 3376 3292 3172 3220 3199 3169
2007 1844 2054 2194 2246 2385 2291 2110 2053 1942 1935 1868 2081 2222 2112 2027 2071 2139 2556 2610 2712 2890 3044 3109 3451 3375 3566 3580 3295 3037 2996 3029 3137 3055 3104 3152 3161 3175 3105 2962 3028 3009
2519 2369 2494 2505 2582 2700 2674 2387 2192 2063 2036 2056 2149 2079 1869 1949 2009 1937 2126 2358 2482 2729 2843 2881 2827 3031 3042 3122 3273 3319 3054 2810 2890 3028 2949 2960 3068 2987 2936 3067 2906 2779
2015 2412 2578 2748 2694 2744 2769 2664 2270 2157 1969 2021 1988 2044 2049 2249 2166 2154 2058 2245 2405 2682 2795 2705 2662 2786 2952 2464 2621 2880 3158 2853 2739 2974 2996 2901 3083 3138 2830 2864 2800 2622
2436 2623 2708 2705 2676 2662 2623 2472 2211 2105 2014 2150 2179 2146 2199 2614 2642 2207 2047 1935 2168 2353 2521 2623 2651 3040 2503 1936 1708 1684 2538 3060 3071 3143 3387 3317 3042 3207 3185 2744 2645 2565
1301 1384 1800 2190 2106 2323 2492 2529 2460 2306 2245 2403 2371 2234 2812 2581 2319 2334 2520 2212 2057 2342 2322 2415 2650 2685 2232 1837 1584 1561 1717 2445 2791 2756 2576 2876 3062 2832 2862 2783 2684 2512
1054 1122 1630 1736 1330 1534 1498 2271 2507 2521 2416 2240 2031 2004 2056 2105 2269 2300 2598 2539 2373 2517 2371 2399 2337 2128 2051 1788 1607 1511 1498 1625 2164 2684 2550 2547 2679 3018 2957 2921 3003 2832
963 977 905 927 945 1131 1190 1024 1142 1785 1767 1825 2549 2812 2541 2131 1847 1892 2003 2438 2322 2367 2462 2350 2216 2060 1789 1660 1534 1492 1489 1530 1755 1918 2250 2096 2720 2853 2789 2818 3077 3123
844 845 814 878 777 829 973 970 1081 964 972 974 1191 2225 2355 2394 2235 1920 1928 2058 1903 1867 2077 1894 1570 1496 1510 1444 1368 1386 1473 1485 1774 1974 1886 2784 2946 3061 3169 2994 2911 3045
688 704 808 874 779 886 828 980 1156 1034 1002 995 1084 1321 949 1084 1382 1914 2249 2271 2272 2040 1799 1609 1185 995 928 903 993 1188 1316 1396 1940 2589 2764 2844 2961 3099 3136 3334 3257 3039
592 592 632 838 816 818 817 793 813 799 1056 1063 1139 1090 937 502 692 864 1056 1339 1404 1480 1440 1326 1160 856 790 645 806 1104 1171 1589 2075 2284 2543 2623 2632 2701 2747 2718 2647 2696
412 459 536 607 737 696 711 637 576 572 641 726 650 573 509 581 690 732 759 592 620 628 848 1551 1199 618 468 456 611 605 1112 1240 1434 1798 2019 2178 2227 2266 2170 2087 1973 1673
288 343 304 377 528 573 505 510 447 475 609 602 607 728 816 902 890 959 903 823 898 679 542 699 634 629 571 546 566 756 820 925 1051 1126 1281 1494 1614 1720 1803 1784 1829 1767
145 130 86 82 88 131 200 259 296 438 556 532 438 474 532 621 659 646 698 771 793 837 861 927 985 776 756 682 752 875 934 859 816 853 1203 1456 1394 1645 1726 1870 1845 1919
Wind_Speed
5 5 4 4 4 4 4 4 4 4 5 5 4 4 3 4 3 2 3 3 3 3 3 4 4 5 5 4 4 3 3 4 5 4 4 4 3 3 3 3 3 3
5 5 7 6 7 7 7 5 5 5 5 5 5 5 5 5 4 3 3 3 3 3 4 4 4 4 5 5 4 4 3 3 4 3 4 3 4 4 3 3 3 3
6 6 6 5 6 5 4 6 6 6 5 5 5 6 6 6 5 5 4 3 3 3 3 3 3 3 3 4 4 5 4 4 4 4 3 4 4 4 4 4 3 2
6 6 6 5 5 6 6 7 8 8 7 8 6 6 6 7 7 6 6 5 5 4 5 4 4 4 4 4 4 5 5 5 5 5 4 4 4 4 4 4 3 3
7 8 8 8 8 8 8 8 7 7 6 7 7 7 8 8 8 7 7 6 6 5 5 5 4 4 5 5 5 5 5 5 4 4 4 4 4 3 4 3 3 2
11 11 11 11 10 9 9 8 8 7 7 7 7 8 8 9 8 7 7 6 5 4 5 5 4 4 4 5 5 5 6 6 6 5 4 4 4 3 3 4 3 3
11 12 11 12 10 9 9 9 9 9 8 8 9 8 9 9 9 8 8 7 5 5 4 5 5 4 5 6 6 5 5 5 6 5 5 5 5 4 4 3 3 3
11 12 12 13 11 11 10 10 10 10 10 9 8 9 9 9 9 8 8 8 7 6 5 4 5 5 5 6 5 5 5 6 5 4 4 5 5 5 5 4 3 2
13 13 14 12 11 12 11 10 11 11 11 9 9 9 9 9 8 7 9 9 8 8 7 6 6 6 6 6 6 6 6 6 6 5 4 4 4 3 3 3 2 1
15 15 13 13 12 13 12 11 12 12 11 10 10 10 9 10 8 8 9 10 9 9 8 7 6 6 6 6 5 5 5 5 5 5 5 4 4 4 3 2 2 1
15 16 15 14 13 14 13 13 12 12 13 11 11 10 10 11 10 9 9 10 9 8 8 7 6 6 6 5 5 5 5 5 5 5 5 5 5 5 4 3 3 2
15 16 15 15 15 15 15 15 14 13 13 14 13 12 12 11 11 11 11 10 10 9 8 8 8 8 7 6 5 5 6 5 6 5 5 5 5 4 3 3 3 3
17 15 16 18 18 18 19 19 17 16 15 15 16 15 14 13 13 12 13 12 11 10 9 10 9 9 9 9 8 7 7 7 6 6 5 6 5 4 3 3 3 3
18 17 16 18 20 22 22 21 21 20 19 19 19 18 16 15 15 15 15 15 14 13 12 12 12 11 12 12 11 10 10 9 8 7 6 5 5 5 4 4 4 4
22 20 21 22 23 25 25 24 24 23 23 23 22 21 20 18 17 17 17 17 17 17 16 15 14 14 15 16 15 13 12 11 10 9 8 7 6 5 6 6 5 5
23 21 24 25 25 25 26 27 26 26 25 24 24 23 22 22 21 21 19 19 19 19 18 18 18 19 20 17 17 18 16 15 14 13 11 10 9 8 8 7 7 6
28 26 26 25 25 26 27 27 26 27 27 27 27 26 25 26 25 22 21 22 22 21 20 20 21 22 21 20 18 16 17 17 16 15 14 12 11 11 10 10 9 9
31 29 28 27 27 28 29 30 29 29 30 31 31 30 31 29 26 25 24 24 25 24 22 22 22 23 22 21 20 19 18 17 17 17 16 15 14 13 14 13 12 11
35 34 33 33 33 31 33 35 34 32 32 33 34 34 35 32 30 29 28 27 26 26 25 25 24 26 25 23 21 20 19 17 18 19 18 17 17 17 16 16 16 15
40 39 41 47 47 43 38 37 38 39 39 37 37 39 38 36 33 31 31 31 30 29 28 28 26 27 28 25 23 22 20 23 21 19 20 18 18 19 19 18 17 17
42 45 47 48 48 44 42 37 35 40 38 36 35 37 36 36 35 34 34 33 31 31 31 30 32 42 33 29 26 24 24 26 22 22 21 20 21 21 20 19 19 19
39 42 43 46 48 48 47 43 39 40 41 40 38 36 34 34 34 36 38 36 37 37 36 36 37 46 41 36 30 28 31 28 25 24 23 23 24 24 23 23 22 21
33 35 36 38 41 43 45 46 42 42 46 45 40 38 38 35 34 34 37 35 34 35 35 37 37 44 43 37 31 31 32 30 29 27 27 25 25 26 26 25 24 23
28 31 31 34 38 41 44 45 44 47 48 43 37 37 39 37 36 38 38 36 34 31 31 34 38 41 38 33 28 28 31 33 34 31 28 27 27 27 27 26 24 22
24 25 27 29 34 37 42 45 45 45 46 45 41 41 40 39 37 36 34 34 33 30 29 32 36 35 34 33 33 31 32 35 35 33 29 28 27 27 27 26 25 24
23 24 nan nan nan 36 39 44 46 45 47 46 43 41 41 42 40 37 35 35 34 32 34 33 31 36 41 39 35 33 32 33 32 29 26 25 25 25 25 25 24 23
Wind_Direction
206 203 205 207 199 208 221 229 214 203 201 196 186 179 170 181 195 179 172 187 183 167 178 174 169 161 160 164 173 165 172 168 169 181 174 171 173 169 182 210 225 235
220 214 215 215 211 214 216 221 230 225 225 217 201 203 202 201 201 189 183 182 185 168 178 169 160 152 149 155 161 156 168 161 146 174 166 150 158 157 144 150 174 202
232 231 228 223 213 217 209 223 224 227 223 217 217 214 213 213 205 215 201 196 183 169 197 192 170 172 161 156 156 155 154 161 150 148 155 152 155 150 142 149 170 179
243 246 239 227 216 223 228 232 232 227 225 231 228 223 227 224 228 222 217 220 207 202 196 197 192 187 192 179 174 166 163 166 166 175 166 168 160 150 154 167 173 177
253 254 252 245 233 230 231 233 228 230 229 230 231 238 239 242 239 230 229 230 230 215 218 215 219 212 217 207 202 187 184 180 186 201 191 178 178 172 165 180 183 171
247 249 254 255 250 243 235 235 235 231 230 231 234 235 237 245 243 240 242 243 244 234 216 212 220 222 219 222 221 208 196 192 201 216 198 187 179 189 198 197 187 176
249 251 258 256 258 253 243 239 238 237 232 224 230 233 236 243 247 246 249 252 250 247 230 217 225 219 222 222 223 217 213 199 195 206 192 183 185 171 173 181 183 168
242 247 253 255 261 257 252 246 242 241 237 234 231 231 235 237 243 241 245 249 249 252 241 226 223 223 205 210 206 206 195 203 204 213 200 181 179 171 175 184 185 168
239 242 248 257 261 254 254 249 245 242 240 234 229 228 234 232 234 234 243 248 244 239 241 229 226 210 208 206 201 197 191 184 187 196 201 188 183 183 182 192 185 191
241 241 247 250 251 247 249 250 244 244 244 237 232 229 231 234 230 230 240 245 241 240 237 229 225 221 213 214 210 202 197 197 191 193 193 193 185 181 183 206 204 229
241 246 248 251 250 244 247 248 247 246 247 245 240 233 232 234 236 233 234 239 236 237 239 237 233 232 232 221 221 222 217 204 200 204 202 198 189 186 189 183 190 191
237 242 248 253 253 248 247 246 244 246 247 249 248 244 243 242 242 241 239 240 239 238 239 242 240 241 243 235 226 227 231 221 219 216 212 212 209 204 205 209 211 215
248 235 236 245 251 251 247 246 245 243 244 246 250 251 251 250 251 251 249 247 248 245 241 242 242 241 245 247 239 233 231 228 220 225 224 228 227 222 219 230 229 231
257 256 247 242 244 249 251 250 249 247 246 244 247 253 254 255 256 258 257 256 256 255 250 246 245 242 246 247 245 243 242 239 237 229 226 230 231 235 235 237 244 244
244 246 251 252 249 248 251 252 252 251 251 251 252 253 253 256 258 257 257 259 259 259 258 255 250 247 245 246 247 248 245 242 243 239 234 232 235 236 245 249 251 254
247 247 250 250 249 249 249 251 254 255 256 257 257 257 256 258 259 259 258 258 258 259 258 258 256 253 255 260 252 245 246 244 245 244 241 239 242 243 244 253 257 259
237 239 249 254 252 253 253 252 253 255 257 258 257 256 256 257 257 258 259 258 259 257 256 255 256 258 266 269 268 262 251 248 249 250 251 252 252 252 249 246 248 254
242 238 240 247 251 249 255 257 253 253 255 257 256 255 253 252 252 253 253 254 254 255 254 253 253 258 268 270 270 270 266 256 254 253 253 254 254 252 251 248 246 248
253 254 252 252 250 245 243 249 250 250 251 253 255 256 253 252 251 249 249 250 251 251 251 251 250 256 265 265 265 266 267 264 255 254 254 255 254 255 252 251 250 249
252 253 253 249 247 242 239 241 245 245 239 238 245 253 255 255 254 252 250 250 250 250 249 248 249 254 265 267 269 269 268 265 256 254 254 250 254 255 254 255 257 256
257 258 256 257 256 252 246 242 245 247 248 245 239 241 248 256 256 253 250 249 249 250 249 248 246 242 252 262 267 270 268 266 262 260 258 259 258 258 257 255 256 259
262 261 258 257 257 255 249 241 243 246 245 239 237 238 236 234 239 245 246 245 245 247 250 251 250 247 244 245 255 266 271 267 265 262 262 262 262 262 262 260 260 260
272 268 265 264 263 258 251 244 240 244 246 244 242 241 240 234 234 242 243 241 243 246 248 251 251 250 249 246 247 261 271 266 264 261 262 263 262 262 262 263 263 263
267 266 259 260 259 256 252 247 241 239 241 240 237 234 237 239 235 235 239 239 236 238 243 248 249 247 251 254 251 252 261 265 261 260 259 259 261 262 262 262 264 270
259 262 256 252 254 253 251 245 239 239 241 238 233 233 237 238 235 238 240 241 241 236 232 237 244 249 249 246 242 244 254 258 257 257 256 255 255 256 258 259 260 266
252 259 nan nan nan 252 248 242 236 234 236 237 235 234 237 242 243 243 244 243 242 240 240 241 242 243 240 239 240 242 246 251 251 252 252 251 251 252 252 255 257 259